GW3570 Weather Reports


Display with metric or nautical units.
time (UTC)temp
F
wind
direction
speed
MPH
gust
MPH
rain 1hr
in
rain 24hr
in
rain mn
in
humidity
%
barometer
mb
20260504234303 78 187 4.0 5.0 0.00 0.00 0.00 53 1003.1
20260504233759 78 179 6.0 7.0 0.00 0.00 0.00 51 1003.3
20260504233255 78 211 4.0 6.0 0.00 0.00 0.00 54 1003.2
20260504232752 78 210 3.0 3.0 0.00 0.00 0.00 52 1003.3
20260504232249 79 204 8.0 10.0 0.00 0.00 0.00 50 1003.4
20260504231746 79 194 9.0 9.0 0.00 0.00 0.00 50 1003.6
20260504231242 79 221 5.0 6.0 0.00 0.00 0.00 52 1003.3
20260504230738 79 180 6.0 8.0 0.00 0.00 0.00 50 1003.4
20260504230237 79 192 7.0 8.0 0.00 0.00 0.00 51 1003.5
20260504225736 80 211 7.0 8.0 0.00 0.00 0.00 50 1003.4
20260504225231 80 226 5.0 6.0 0.00 0.00 0.00 49 1003.5
20260504224729 80 221 6.0 7.0 0.00 0.00 0.00 49 1003.5
20260504224226 80 233 3.0 3.0 0.00 0.00 0.00 50 1003.3
20260504223722 81 248 5.0 6.0 0.00 0.00 0.00 49 1003.4
20260504223218 81 236 6.0 8.0 0.00 0.00 0.00 47 1003.4
20260504222715 81 211 5.0 6.0 0.00 0.00 0.00 48 1003.2
20260504222212 81 255 5.0 6.0 0.00 0.00 0.00 48 1003.4
20260504221709 81 205 7.0 10.0 0.00 0.00 0.00 47 1003.3
20260504221206 81 264 11.0 13.0 0.00 0.00 0.00 47 1003.4
20260504220702 81 216 11.0 14.0 0.00 0.00 0.00 46 1003.5
20260504220200 82 201 10.0 11.0 0.00 0.00 0.00 46 1003.2
20260504215656 81 195 9.0 11.0 0.00 0.00 0.00 45 1003.7
20260504215154 81 194 10.0 13.0 0.00 0.00 0.00 46 1003.6
20260504214649 81 201 7.0 9.0 0.00 0.00 0.00 46 1003.5
20260504214146 81 198 7.0 10.0 0.00 0.00 0.00 45 1003.6
20260504213642 81 243 13.0 15.0 0.00 0.00 0.00 47 1003.8
20260504213139 82 209 4.0 6.0 0.00 0.00 0.00 45 1003.6
20260504212636 82 193 9.0 11.0 0.00 0.00 0.00 46 1003.7
20260504212132 82 225 6.0 9.0 0.00 0.00 0.00 45 1003.6
20260504211630 82 225 7.0 9.0 0.00 0.00 0.00 45 1003.8
20260504211126 82 255 10.0 13.0 0.00 0.00 0.00 45 1003.8
20260504210624 82 196 8.0 11.0 0.00 0.00 0.00 46 1003.7
20260504210120 82 197 8.0 10.0 0.00 0.00 0.00 46 1003.8
20260504205618 81 203 9.0 11.0 0.00 0.00 0.00 46 1003.9
20260504205115 82 209 5.0 6.0 0.00 0.00 0.00 48 1003.8
20260504204614 82 184 7.0 8.0 0.00 0.00 0.00 46 1003.7
20260504204112 82 230 8.0 8.0 0.00 0.00 0.00 46 1003.9
20260504203611 82 236 6.0 6.0 0.00 0.00 0.00 48 1004.0
20260504203108 81 219 6.0 7.0 0.00 0.00 0.00 50 1003.7
20260504202603 82 216 5.0 7.0 0.00 0.00 0.00 47 1004.3
20260504202100 81 223 8.0 11.0 0.00 0.00 0.00 47 1004.2
20260504201557 81 213 13.0 15.0 0.00 0.00 0.00 46 1004.1
20260504201055 81 225 7.0 9.0 0.00 0.00 0.00 50 1004.1
20260504200550 81 189 4.0 5.0 0.00 0.00 0.00 47 1004.1
20260504200048 81 233 4.0 6.0 0.00 0.00 0.00 48 1004.3
20260504195544 81 201 7.0 9.0 0.00 0.00 0.00 45 1004.2
20260504195040 81 247 7.0 9.0 0.00 0.00 0.00 49 1004.6
20260504194537 81 195 6.0 7.0 0.00 0.00 0.00 51 1004.6
20260504194032 81 214 4.0 6.0 0.00 0.00 0.00 48 1004.6
20260504193529 81 225 7.0 8.0 0.00 0.00 0.00 50 1004.5
20260504193028 81 202 6.0 7.0 0.00 0.00 0.00 51 1004.7
20260504192526 80 208 9.0 11.0 0.00 0.00 0.00 49 1004.6
20260504192024 80 224 7.0 10.0 0.00 0.00 0.00 51 1004.7
20260504191521 80 207 5.0 6.0 0.00 0.00 0.00 50 1004.7
20260504191017 79 212 8.0 13.0 0.00 0.00 0.00 48 1004.8
20260504190514 79 224 6.0 8.0 0.00 0.00 0.00 50 1004.8
20260504190010 79 262 5.0 8.0 0.00 0.00 0.00 50 1004.9
20260504185507 79 256 10.0 13.0 0.00 0.00 0.00 50 1004.7
20260504185004 79 244 5.0 6.0 0.00 0.00 0.00 54 1004.8
20260504184459 79 216 5.0 6.0 0.00 0.00 0.00 49 1005.0
20260504183955 79 235 5.0 6.0 0.00 0.00 0.00 54 1005.0
20260504183452 78 213 4.0 5.0 0.00 0.00 0.00 54 1004.8
20260504182950 78 271 5.0 6.0 0.00 0.00 0.00 53 1005.2
20260504182446 78 228 5.0 6.0 0.00 0.00 0.00 52 1005.0
20260504181944 78 179 5.0 7.0 0.00 0.00 0.00 51 1004.7
20260504181441 77 205 5.0 6.0 0.00 0.00 0.00 51 1004.9
20260504180939 77 245 4.0 5.0 0.00 0.00 0.00 55 1005.2
20260504180438 77 241 4.0 5.0 0.00 0.00 0.00 52 1005.2
20260504175936 76 245 4.0 5.0 0.00 0.00 0.00 53 1004.8
20260504175432 76 245 5.0 7.0 0.00 0.00 0.00 53 1005.0
20260504174930 76 188 3.0 5.0 0.00 0.00 0.00 52 1005.2
20260504174427 76 183 6.0 6.0 0.00 0.00 0.00 51 1005.0
20260504173925 76 224 6.0 7.0 0.00 0.00 0.00 52 1004.9
20260504173421 75 191 7.0 8.0 0.00 0.00 0.00 51 1005.1
20260504172919 75 199 7.0 8.0 0.00 0.00 0.00 51 1004.8
20260504172415 74 212 3.0 3.0 0.00 0.00 0.00 52 1005.0
20260504171911 74 204 3.0 3.0 0.00 0.00 0.00 51 1005.5
20260504171408 74 215 5.0 5.0 0.00 0.00 0.00 53 1005.7
20260504170905 74 252 5.0 6.0 0.00 0.00 0.00 52 1005.8
20260504170402 74 218 4.0 5.0 0.00 0.00 0.00 54 1005.9
20260504160320 76 243 4.0 6.0 0.00 0.00 0.00 53 1006.1
20260504150745 74 199 6.0 8.0 0.00 0.00 0.00 49 1005.9
20260504150242 73 241 8.0 8.0 0.00 0.00 0.00 52 1006.3
20260504141212 71 209 8.0 9.0 0.00 0.00 0.00 51 1006.7
20260504140708 71 206 8.0 9.0 0.00 0.00 0.00 52 1006.8
20260504140204 70 203 4.0 7.0 0.00 0.00 0.00 54 1006.9
20260504130632 66 190 2.0 3.0 0.00 0.00 0.00 58 1007.2
20260504130129 66 193 4.0 5.0 0.00 0.00 0.00 58 1007.3
20260504110520 64 181 3.0 3.0 0.00 0.00 0.00 60 1007.5
20260504100443 62 176 0.0 1.0 0.00 0.00 0.00 66 1008.2
20260504081841 64 186 0.0 0.0 0.00 0.00 0.00 61 1008.1
20260504081337 65 157 0.0 0.0 0.00 0.00 0.00 61 1008.3
20260504080833 66 209 0.0 0.0 0.00 0.00 0.00 59 1008.4
20260504080330 65 217 0.0 1.0 0.00 0.00 0.00 59 1008.4
20260504070257 67 203 0.0 0.0 0.00 0.00 0.00 57 1008.8
20260504060218 69 216 4.0 5.0 0.00 0.00 0.00 51 1009.0
20260504050646 70 155 2.0 2.0 0.00 0.00 0.00 53 1009.1
20260504050143 69 202 6.0 7.0 0.00 0.00 0.00 51 1009.3
20260504045641 69 197 4.0 5.0 0.00 0.00 0.00 51 1008.9
20260504045140 69 181 3.0 3.0 0.00 0.00 0.00 55 1009.0
20260504044638 69 193 3.0 3.0 0.00 0.00 0.00 51 1009.2
20260504044134 69 199 5.0 6.0 0.00 0.00 0.00 50 1009.2
20260504043632 69 192 3.0 3.0 0.00 0.00 0.00 53 1009.3
20260504043129 69 211 3.0 3.0 0.00 0.00 0.00 52 1009.4
20260504042626 69 150 4.0 5.0 0.00 0.00 0.00 53 1009.4
20260504042123 69 200 3.0 3.0 0.00 0.00 0.00 51 1009.2
20260504041618 69 191 2.0 2.0 0.00 0.00 0.00 54 1009.7
20260504041115 69 207 4.0 5.0 0.00 0.00 0.00 51 1009.5
20260504040612 69 208 3.0 3.0 0.00 0.00 0.00 53 1009.5
20260504040109 69 172 2.0 2.0 0.00 0.00 0.00 55 1009.5
20260504035606 69 206 1.0 2.0 0.00 0.00 0.00 53 1009.5
20260504035102 69 200 4.0 5.0 0.00 0.00 0.00 52 1009.6
20260504034600 69 198 2.0 2.0 0.00 0.00 0.00 52 1009.5
20260504034056 69 175 1.0 2.0 0.00 0.00 0.00 53 1009.7
20260504033555 69 185 2.0 2.0 0.00 0.00 0.00 52 1010.0
20260504033052 69 202 2.0 2.0 0.00 0.00 0.00 52 1009.9
20260504032549 69 203 2.0 2.0 0.00 0.00 0.00 53 1010.1
20260504032046 69 195 2.0 2.0 0.00 0.00 0.00 51 1010.0
20260504031543 70 175 2.0 2.0 0.00 0.00 0.00 56 1010.1
20260504031039 69 189 1.0 2.0 0.00 0.00 0.00 54 1010.2
20260504030537 69 202 3.0 3.0 0.00 0.00 0.00 55 1009.8
20260504030032 68 198 0.0 1.0 0.00 0.00 0.00 59 1010.0
20260504025529 69 208 0.0 0.0 0.00 0.00 0.00 57 1010.0
20260504025026 69 193 0.0 0.0 0.00 0.00 0.00 55 1010.0
20260504024523 70 199 0.0 0.0 0.00 0.00 0.00 54 1010.0
20260504024020 70 185 0.0 0.0 0.00 0.00 0.00 54 1010.1
20260504023516 70 208 0.0 0.0 0.00 0.00 0.00 54 1010.2
20260504023012 71 171 1.0 1.0 0.00 0.00 0.00 52 1010.2
20260504022508 71 188 0.0 0.0 0.00 0.00 0.00 51 1010.0
20260504022005 71 205 3.0 3.0 0.00 0.00 0.00 51 1009.9
20260504021502 71 183 1.0 1.0 0.00 0.00 0.00 53 1010.0
20260504020959 71 184 2.0 2.0 0.00 0.00 0.00 51 1010.0
20260504020456 71 187 0.0 1.0 0.00 0.00 0.00 51 1009.9
20260504015953 71 203 1.0 2.0 0.00 0.00 0.00 52 1009.9
20260504015449 71 211 1.0 1.0 0.00 0.00 0.00 49 1010.0
20260504014945 71 165 2.0 2.0 0.00 0.00 0.00 49 1009.8
20260504014441 71 187 0.0 1.0 0.00 0.00 0.00 52 1009.8
20260504013938 71 175 0.0 0.0 0.00 0.00 0.00 50 1009.8
20260504013437 71 169 0.0 0.0 0.00 0.00 0.00 52 1009.6
20260504012932 71 167 0.0 0.0 0.00 0.00 0.00 50 1009.9
20260504012430 72 184 0.0 0.0 0.00 0.00 0.00 51 1009.9
20260504011927 73 184 0.0 0.0 0.00 0.00 0.00 49 1009.8
20260504011424 72 198 0.0 0.0 0.00 0.00 0.00 48 1010.0
20260504010920 72 195 0.0 0.0 0.00 0.00 0.00 50 1009.9
20260504010416 73 205 0.0 0.0 0.00 0.00 0.00 48 1009.8
20260504005913 73 206 2.0 3.0 0.00 0.00 0.00 48 1010.0
20260504005409 74 196 2.0 2.0 0.00 0.00 0.00 46 1010.0
20260504004907 73 207 2.0 2.0 0.00 0.00 0.00 45 1009.9
20260504004405 74 206 1.0 1.0 0.00 0.00 0.00 50 1009.8
20260504003901 75 236 2.0 2.0 0.00 0.00 0.00 48 1009.9
20260504003358 75 248 3.0 3.0 0.00 0.00 0.00 46 1009.8
20260504002854 75 252 5.0 6.0 0.00 0.00 0.00 42 1009.8
20260504002351 76 256 6.0 7.0 0.00 0.00 0.00 44 1009.9
20260504001849 76 237 5.0 6.0 0.00 0.00 0.00 42 1010.1
20260504001346 77 239 3.0 3.0 0.00 0.00 0.00 44 1010.1
20260504000843 77 247 3.0 3.0 0.00 0.00 0.00 41 1010.0
20260504000340 77 224 6.0 7.0 0.00 0.00 0.00 38 1010.1
20260503235837 78 204 3.0 5.0 0.00 0.00 0.00 41 1009.9
20260503235335 78 238 4.0 5.0 0.00 0.00 0.00 39 1010.0
20260503234832 78 244 5.0 7.0 0.00 0.00 0.00 40 1009.8